User: anonymous   Login
Location: Cogollal
(10.0582°N, 67.8466°W)
Time: 07:17:27
(UTC+00:00)
Language:

Cosmos 1766 - Orbit

View from above orbital plane
View from above orbital plane
View from above satellite
View from above satellite

Ground track
Ground track

The orbit data is extracted from the following two-line orbital elements,

1 16881U 86055A   24166.72574354  .00008666  00000-0  35795-3 0  9992
2 16881  82.5012  34.3504 0010521 290.1941  69.8164 15.23817028 46425
Epoch (UTC): 14 June 2024 17:25:04
Eccentricity: 0.0010521
inclination: 82.5012°
perigee height: 487 km
apogee height: 501 km
right ascension of ascending node: 34.3504°
argument of perigee: 290.1941°
revolutions per day: 15.23817028
mean anomaly at epoch: 69.8164°
orbit number at epoch: 4642

The dashed part of the orbit path shows where the satellite is in the earth's shadow,  

DLR